sat.trackr.live / text

‹ back to catalog

ONEWEB-0402

NORAD 50482 · 2021-132P

PAYLOAD ACTIVE UNKNOWN

§ Identity

Operator
Country
UK
Launch date
2021-12-27
Launch site
TYMSC
Launch vehicle
Mass (kg)
RCS (m²)

Purposes: comms

External: N2YO · Heavens-Above · Gunter

§ Orbital elements

Epoch: 2026-09-19T22:31:41.589120Z

Period
109.20 min
Inclination
87.9160°
Eccentricity
0.0002415
Mean motion
13.18691782 rev/d
Perigee alt
1,187.9 km
Apogee alt
1,191.5 km
Semi-major
7,567.9 km
B*
-2.8944e-3
RAAN
316.6080°
Arg perigee
89.3225°
Mean anomaly
270.8184°
Rev number
23,412

§ Raw data

ONEWEB-04021 50482U 21132P   26262.93867580 -.00001128  00000+0 -28944-2 0  99942 50482  87.9160 316.6080 0002415  89.3225 270.8184 13.18691782234125

JSON: /api/v1/satellites/50482 · /tle

For live sub-satellite position, see the globe view (requires WebGL).

§ Visibility from observer

Set your observer location to see the next 7 days of passes ≥ 10°. The values pass through the URL so the page stays shareable.

No JS? Fill the form by hand. The geolocation button needs JavaScript.